Regional Weather Roundup
Issued by NWS

Home | Current Version | Previous Version | Graphics & Text | Print | Product List | Glossary On
Versions: 1 2 3 4 5 6 7 8 9 10 11 12 13 14 15 16 17 18 19 20 21 22 23 24 25 26 27 28 29 30 31 32 33 34 35 36 37 38 39 40 41 42 43 44 45 46 47 48 49 50
000
ASUS43 KMKX 152121
RWRWI

WISCONSIN REGIONAL WEATHER ROUNDUP
NATIONAL WEATHER SERVICE MILWAUKEE/SULLIVAN WI
400 PM CDT TUE AUG 15 2017

NOTE: "FAIR" INDICATES FEW OR NO CLOUDS BELOW 12,000 FEET WITH NO
SIGNIFICANT WEATHER AND/OR OBSTRUCTIONS TO VISIBILITY.

WIZ001-002-006>008-014>016-023>028-152200-
NORTHWEST WISCONSIN

CITY           SKY/WX    TMP DP  RH WIND       PRES   REMARKS
SUPERIOR ARPT    N/A     67  61  79 NE12G17   29.99S
ASHLAND        CLOUDY    71  61  70 N9        30.01S
HAYWARD        MOSUNNY   76  56  49 S5        29.99F
SIREN          SUNNY     77  57  49 SE7       29.97F
CUMBERLAND     SUNNY     73  52  46 SE5       29.99F
RICE LAKE      MOSUNNY   76  55  49 SE6       30.00F
CHETEK         MOSUNNY   75  57  52 SE3       29.99F
LADYSMITH      PTSUNNY   76  53  44 CALM      30.01S
EAU CLAIRE     CLOUDY    76  54  46 E8        29.96F
MENOMONIE      CLOUDY    76  56  48 E6        29.97F
NEW RICHMOND   CLOUDY    76  56  49 E8        29.97F
OSCEOLA        CLOUDY    77  56  47 E12       29.99F
$$

WIZ003>005-009-010-017-018-152200-
NORTH CENTRAL WISCONSIN

CITY           SKY/WX    TMP DP  RH WIND       PRES   REMARKS
MANITOWISH WTR PTSUNNY   73  53  50 N3        30.01S
ARBOR VITAE    MOSUNNY   72  53  51 CALM      30.02S
WOODRUFF       MOSUNNY   72  53  51 CALM      30.02S
RHINELANDER    PTSUNNY   73  54  51 E6        30.02S
EAGLE RIVER    MOSUNNY   70  51  49 CALM      30.02R
LAND O LAKES   MOSUNNY   73  50  45 NE6       30.03S
PHILLIPS       SUNNY     74  53  48 CALM      30.00S
TOMAHAWK         N/A     73  50  45 CALM      30.01F
MEDFORD        MOSUNNY   72  54  53 CALM      30.00F
MERRILL        SUNNY     75  54  46 N3        30.00F
$$

WIZ029-030-035-036-043>047-152200-
CENTRAL WISCONSIN

CITY           SKY/WX    TMP DP  RH WIND       PRES   REMARKS
WAUSAU         PTSUNNY   76  54  46 E5        29.98S
MOSINEE        PTSUNNY   75  54  46 CALM      30.00F
MARSHFIELD     CLOUDY    75  53  46 NE6       29.98F
STEVENS POINT  CLOUDY    74  53  47 CALM      29.99F
WAUPACA        CLOUDY    78  55  44 E3        29.98F
WAUTOMA        CLOUDY    77  58  51 NE7       29.97F
WISC RAPIDS    CLOUDY    77  56  48 NE10      29.98F
CAMP DOUGLAS   PTSUNNY   77  59  53 SE6       29.97F
$$

WIZ011>013-019>022-031-037>040-048>050-152200-
NORTHEAST WISCONSIN

CITY           SKY/WX    TMP DP  RH WIND       PRES   REMARKS
ANTIGO         PTSUNNY   72  55  54 E7        30.02S
SHAWANO        CLOUDY    77  57  50 NE6       29.98S
OCONTO         MOSUNNY   73  57  58 N3        29.98F
STURGEON BAY   MOSUNNY   70  61  73 VRB3      30.00S
GREEN BAY      MOSUNNY   72  62  71 NE9       29.98S
MANITOWOC      SUNNY     71  58  63 SE6       29.99F
APPLETON       MOSUNNY   73  52  46 N5        29.97F
CLINTONVILLE   PTSUNNY   73  54  49 CALM      29.98S
OSHKOSH        SUNNY     75  56  51 NE7       29.97F
$$

WIZ032>034-041-042-053>061-152200-
SOUTHWEST WISCONSIN

CITY           SKY/WX    TMP DP  RH WIND       PRES   REMARKS
LA CROSSE      CLOUDY    78  60  53 SE10      29.95F
SPARTA         MOSUNNY   76  58  54 E8        29.97F
VIROQUA        CLOUDY    73  62  67 E6        29.98S
BOSCOBEL       CLOUDY    76  61  59 E6        29.96F
PRAIRIE DU CHI PTSUNNY   73  60  62 E7        29.94F
PLATTEVILLE    CLOUDY    74  65  75 E7        29.97F
$$

WIZ056-057-062-063-064-067-068-152200-
SOUTH CENTRAL WISCONSIN

CITY           SKY/WX    TMP DP  RH WIND       PRES   REMARKS
REEDSBURG      MOSUNNY   74  60  63 S3        29.96F
BARABOO/DELLS  MOSUNNY   76  57  52 CALM      29.97F
LONE ROCK      CLOUDY    74  62  66 NE6       29.97F
MINERAL POINT  CLOUDY    73  63  68 CALM      29.98S
MADISON        CLOUDY    75  62  64 E6        29.96F
MIDDLETON      CLOUDY    76  60  58 CALM      29.97F
WATERTOWN      PTSUNNY   76  64  66 E6        29.96S
MONROE         MOSUNNY   73  61  64 CALM      29.97S
JANESVILLE     PTSUNNY   81  64  57 NW7       29.95S HX  82
$$

WIZ051-052-058>065-066-070>072-152200-
SOUTHEAST WISCONSIN

CITY           SKY/WX    TMP DP  RH WIND       PRES   REMARKS
MILWAUKEE      PTSUNNY   74  62  66 NE9       29.97F
WAUKESHA       MOSUNNY   73  57  56 E7        29.98F
MILWAUKEE/TIMM SUNNY     73  55  53 E6        29.98S
RACINE         CLOUDY    74  63  68 NE12      29.99S
KENOSHA        CLOUDY    73  61  65 E10       29.97S
FOND DU LAC    MOSUNNY   76  56  49 N12       29.98S
SHEBOYGAN      SUNNY     73  63  70 NE9       29.98S
WEST BEND      CLOUDY    73  59  60 NE5       29.97S
JUNEAU         CLOUDY    73  59  60 CALM      29.98S
$$

LSZ147-162-152200-
LAKE SUPERIOR

STATION/POSITION TIME  TEMP    WIND        PRES    WAVE
                       AIR SEA DIR/SP/G            HT/PER
                 (UTC) (F)     (DEG/KT/KT) (MB)    (FT/S)
W MID LAKE BUOY  2050   61 61   80/  6/  8 1016.5F   1
DEVILS ISLAND    2100   62      80/  8/  9 1016.6R
PORT WING        1920   67      30/ 16/ 18 1015.6
SAXON HARBOR     2040   65      30/  7/  8 1015.9R
$$

LMZ867-665-643>646-152200-
LAKE MICHIGAN

STATION/POSITION TIME  TEMP    WIND        PRES    WAVE
                       AIR SEA DIR/SP/G            HT/PER
                 (UTC) (F)     (DEG/KT/KT) (MB)    (FT/S)
S GREEN BAY BUOY 2100   69 72   60/  6/  8 1015.4
N MID LAKE BUOY  2050   67 69  240/  6/  6 1015.7R   0
NORTHPORT PIER   2040   70     320/  3/  5 1015.2S
KEWAUNEE LAKESHO 2054   69      90/  5/  6 1014.8F
SHEBOYGAN LAKESH 2100   67      70/  7/  7 1014.9F
PORT WASHINGTON  2040   71      70/  5/  8 1015.9S
ATWATER BUOY     2009   69 71   30/ 10/ 12 1015.3
MILWAUKEE LAKESH 1900   68      30/ 10/ 12   N/A
S MID LAKE BUOY  2050   69 72   10/ 14/ 16 1014.6R   2/ 4
KENOSHA   LAKESH 2100   69      40/ 12/ 14 1014.6
$$

TC  - TEMPERATURE IN CELSIUS
VSB - VISIBILITY IN STATUTE MILES
WCI - WIND CHILL INDEX
HX  - HEAT INDEX





USA.gov is the U.S. government's official web portal to all federal, state and local government web resources and services.